User: anonymous   Login
Location: Unspecified
(0.0000°N, 0.0000°E)
Time: 15:09:02
(UTC+00:00)
Language:

CAS-4B - Orbit

View from above orbital plane
View from above orbital plane
View from above satellite
View from above satellite

Ground track
Ground track

The orbit data is extracted from the following two-line orbital elements,

1 42759U 17034B   24064.19665770  .00016349  00000-0  66795-3 0  9998
2 42759  43.0125  98.0419 0011280   6.6951 353.4048 15.24085122371361
Epoch (UTC): 04 March 2024 04:43:11
Eccentricity: 0.0011280
inclination: 43.0125°
perigee height: 486 km
apogee height: 501 km
right ascension of ascending node: 98.0419°
argument of perigee: 6.6951°
revolutions per day: 15.24085122
mean anomaly at epoch: 353.4048°
orbit number at epoch: 37136

The dashed part of the orbit path shows where the satellite is in the earth's shadow,  

DLR